User: anonymous   Login
Location: Hurecourt
(47.9030°N, 6.0653°E)
Time: 01:59:52
(UTC+00:00)
Language:

Landsat 4 - Orbit

View from above orbital plane
View from above orbital plane
View from above satellite
View from above satellite

Ground track
Ground track

The orbit data is extracted from the following two-line orbital elements,

1 13367U 82072A   20272.37803137 +.00001161 +00000-0 +62237-4 0  9997
2 13367 098.1767 191.2390 0014317 078.3367 035.3631 15.17209448066784
Epoch (UTC): 28 September 2020 09:04:21
Eccentricity: 0.0014317
inclination: 98.1767°
perigee height: 504 km
apogee height: 524 km
right ascension of ascending node: 191.2390°
argument of perigee: 78.3367°
revolutions per day: 15.17209448
mean anomaly at epoch: 35.3631°
orbit number at epoch: 6678

The dashed part of the orbit path shows where the satellite is in the earth's shadow,  

DLR